Tracking 31027 objects as of 19-Jul-2025
HD Live streaming from Space Station
objects crossing your sky now

SL-8 R/B

Track SL-8 R/B now!
10-day predictions
SL-8 R/B is classified as:


NORAD ID: 19257
Int'l Code: 1988-053B
Perigee: 756.2 km
Apogee: 783.4 km
Inclination: 74.0 °
Period: 100.1 minutes
Semi major axis: 7140 km
RCS: 4.3504 m2 (large)
Launch date: June 21, 1988
Source: Commonwealth of Independent States (former USSR) (CIS)
Launch site: PLESETSK MISSILE AND SPACE COMPLEX (PKMTR)

Note: This is a ROCKET BODY
Your satellite tracking list
STARLINK-3349
Track 1 satellite(s)




NASA's NSSDC Master Catalog

Two Line Element Set (TLE):
1 19257U 88053B   25199.42286584  .00000101  00000-0  41220-4 0  9998
2 19257  74.0460 184.2026 0018998  60.9986  50.8724 14.38738319942900
Source of the keplerian elements: AFSPC